Location: Boiro
(42.6475°N, 8.8834°W)
Time: 18:43:36
(UTC+01:00)

Vanguard 1 - Visible Passes

Search period start: 06 December 2021 00:00
Search period end: 16 December 2021 00:00
Orbit: 653 x 3830 km, 34.3° (Epoch: 06 December)

Date Brightness Start Highest point End Pass type
(mag) Time Alt. Az. Time Alt. Az. Time Alt. Az.
06 Dec 13.3 02:42:36 37° ESE 02:42:36 37° ESE 02:51:32 10° E visible
06 Dec 12.6 04:55:18 61° SW 04:57:28 63° SSW 05:13:22 10° ESE visible
06 Dec 12.8 07:08:00 19° W 07:20:18 36° SW 07:31:47 10° SSE visible
06 Dec 13.5 21:50:57 10° S 21:55:44 18° SSE 21:55:44 18° SSE visible
07 Dec 13.9 00:07:41 10° SW 00:49:32 - E 00:08:26 12° SW visible
07 Dec 13.1 03:02:14 43° ESE 03:02:14 43° ESE 03:12:38 10° E visible
07 Dec 12.6 05:14:56 54° SW 05:18:31 58° SSW 05:33:59 10° SE visible
07 Dec 13.0 07:27:38 14° W 07:40:35 29° SW 07:51:20 10° S visible
07 Dec 13.4 22:09:50 10° S 22:15:34 23° S 22:15:34 23° S visible
08 Dec 13.9 00:28:09 10° SW 01:09:11 12° E 01:09:51 10° E visible
08 Dec 13.0 03:21:53 49° SE 03:21:53 49° SE 03:33:39 10° ESE visible
08 Dec 12.7 05:34:35 47° WSW 05:39:25 52° SSW 05:54:26 10° SE visible
08 Dec 13.2 07:47:26 10° W 08:00:42 23° SW 08:10:21 10° S visible
08 Dec 13.6 20:21:50 10° SE 20:22:41 10° SE 20:22:41 10° SE visible
08 Dec 13.3 22:29:17 10° SSW 22:35:24 26° S 22:35:24 26° S visible
09 Dec 13.9 01:28:52 16° E 01:28:52 16° E 01:31:10 10° E visible
09 Dec 12.9 03:41:34 54° SE 03:41:34 54° SE 03:54:36 10° ESE visible
09 Dec 12.8 05:54:16 39° WSW 06:00:10 46° SSW 06:14:40 10° SSE visible
09 Dec 13.4 08:11:05 10° W 08:20:41 16° SW 08:28:20 10° SSW visible
09 Dec 13.4 20:35:34 10° SSE 20:42:32 16° SE 20:42:32 16° SE visible
09 Dec 13.2 22:49:09 10° SSW 22:55:15 28° SSW 22:55:15 28° SSW visible
10 Dec 13.8 01:48:35 20° E 01:48:35 20° E 01:52:26 10° E visible
10 Dec 12.8 04:01:17 57° SSE 04:01:17 57° SSE 04:15:25 10° ESE visible
10 Dec 12.9 06:14:00 33° WSW 06:20:43 39° SW 06:34:36 10° SSE visible
10 Dec 13.2 20:53:21 10° S 21:02:23 22° SE 21:02:23 22° SE visible
10 Dec 13.2 23:09:19 10° SW 23:15:07 28° SSW 23:15:07 28° SSW visible
11 Dec 13.7 02:08:19 24° ESE 02:08:19 24° ESE 02:13:38 10° E visible
11 Dec 12.8 04:21:02 56° S 04:21:02 56° S 04:36:06 10° SE visible
11 Dec 13.1 06:33:44 26° WSW 06:41:05 32° SW 06:54:10 10° SSE visible
11 Dec 13.0 21:12:12 10° S 21:22:14 29° SE 21:22:14 29° SE visible
11 Dec 13.3 23:29:45 10° SW 23:34:58 27° SW 23:34:58 27° SW visible
12 Dec 13.6 02:28:05 28° ESE 02:28:05 28° ESE 02:34:46 10° ESE visible
12 Dec 12.8 04:40:48 53° SSW 04:40:48 53° SSW 04:56:35 10° SE visible
12 Dec 13.3 06:53:30 20° WSW 07:01:17 25° SW 07:13:13 10° S visible
12 Dec 12.8 21:31:39 10° SSW 21:42:04 35° SSE 21:42:04 35° SSE visible
12 Dec 13.4 23:50:21 10° WSW 00:35:09 - E 23:54:48 24° SW visible
13 Dec 13.4 02:47:52 32° ESE 02:47:52 32° ESE 02:55:49 10° ESE visible
13 Dec 12.9 05:00:35 47° SSW 05:00:35 47° SSW 05:16:50 10° SE visible
13 Dec 13.5 07:13:18 14° W 07:21:22 19° SW 07:31:23 10° SSW visible
13 Dec 13.3 19:39:02 10° SSE 19:45:06 14° ESE 19:49:11 12° ESE visible
13 Dec 12.7 21:51:30 10° SSW 22:01:54 41° SSE 22:01:54 41° SSE visible
14 Dec 13.5 00:11:07 10° WSW 00:54:58 - E 00:14:37 21° WSW visible
14 Dec 13.3 03:07:41 36° SE 03:07:41 36° SE 03:16:43 10° ESE visible
14 Dec 13.0 05:20:24 41° SW 05:20:28 41° SW 05:36:47 10° SSE visible
14 Dec 13.7 07:34:31 10° WSW 07:41:22 12° WSW 07:47:28 10° SW visible
14 Dec 13.1 19:56:26 10° SSE 20:05:02 20° SE 20:08:59 18° ESE visible
14 Dec 12.6 22:11:39 10° SW 22:21:42 45° S 22:21:42 45° S visible
15 Dec 13.6 00:32:00 10° WSW 01:14:47 - E 00:34:25 17° WSW visible
15 Dec 13.3 03:27:31 38° SE 03:27:31 38° SE 03:37:28 10° SE visible
15 Dec 13.2 05:40:14 34° SW 05:40:58 34° SW 05:56:21 10° SSE visible
15 Dec 12.9 20:15:12 10° S 20:25:06 27° SE 20:28:46 25° ESE visible
15 Dec 12.6 22:32:02 10° SW 22:41:29 46° SSW 22:41:29 46° SSW visible
